User: anonymous   Login
Location: Unspecified
(0.0000°N, 0.0000°E)
Time: 12:52:40
(UTC+00:00)
Language:

ORS 1 (USA 231) - Orbit

View from above orbital plane
View from above orbital plane
View from above satellite
View from above satellite

Ground track
Ground track

The orbit data is extracted from the following two-line orbital elements,

1 37728U 11029A   17212.83683261 0.00019500  00000-0  15982-3 0    06
2 37728  39.9939 172.0204 0002000 258.2880 101.7113 15.69493356    07
Epoch (UTC): 31 July 2017 20:05:02
Eccentricity: 0.0002000
inclination: 39.9939°
perigee height: 359 km
apogee height: 362 km
right ascension of ascending node: 172.0204°
argument of perigee: 258.2880°
revolutions per day: 15.69493356
mean anomaly at epoch: 101.7113°
orbit number at epoch: 0

The dashed part of the orbit path shows where the satellite is in the earth's shadow,  

DLR